Luxor, Egypt

4:28 PM EET on September 19, 2017 (GMT +0200)
Luxor

Weather History for HELX - October, 2011

Change the Weather History Date:

Saturday, October 29, 2011

  Actual Average Record
Temperature  
Mean Temperature 75 °F -  
Max Temperature 86 °F 81 °F 95 °F (1997)
Min Temperature 64 °F 54 °F 55 °F (2000)
Cooling Degree Days 10    
Growing Degree Days 25 (Base 50)    
Moisture  
Dew Point 54 °F    
Average Humidity 46    
Maximum Humidity 64    
Minimum Humidity 26    
Precipitation  
Precipitation 0.00 in 0.00 in - ()
Sea Level Pressure  
Sea Level Pressure 29.92 in    
Wind  
Wind Speed 2 mph ()    
Max Wind Speed 5 mph    
Max Gust Speed -    
Visibility 5.8 miles    
Events      
Averages and records for this station are not official NWS values.
T = Trace of Precipitation, MM = Missing Value Source: Averaged Metar Reports

Daily Weather History Graph

Daily Weather History Graph

Search for Another Location

Airport or City:

Trip Planner

Search our weather history database for the weather conditions in past years. The results will help you decide how hot, cold, wet, or windy it might be!

Date:

Astronomy

Oct. 29, 2011 Rise Set
Actual Time 5:55 AM EET 5:10 PM EET
Civil Twilight 5:31 AM EET 5:33 PM EET
Nautical Twilight 5:04 AM EET 6:00 PM EET
Astronomical Twilight 4:37 AM EET 6:27 PM EET
Moon 8:37 AM EET (10/29) 7:30 PM EET (10/29)
Length of Visible Light 12h 02m
Length of Day
11h 15m
Waxing Crescent, 10% of the Moon is Illuminated
Oct 29
Waxing Crescent
Nov 2
First Quarter
Nov 10
Full
Nov 18
Last Quarter
Nov 25
New

Hourly Weather History & Observations

Time (EET) Temp. Heat Index Dew Point Humidity Pressure Visibility Wind Dir Wind Speed Gust Speed Precip Events Conditions
12:00 AM 73.4 °F - 53.6 °F 50% 29.92 in - NW 2.3 mph - N/A   Clear
1:00 AM 69.8 °F - 55.4 °F 60% 29.92 in - West 4.6 mph - N/A   Clear
2:00 AM 68 °F - 55 °F 53% 29.91 in 6 mi West 3.5 mph - -  
2:00 AM 68.0 °F - 55.4 °F 64% 29.92 in - West 3.5 mph - N/A   Clear
3:00 AM 68.0 °F - 53.6 °F 60% 29.92 in - WNW 2.3 mph - N/A   Clear
4:00 AM 66.2 °F - 50.0 °F 56% 29.92 in - WNW 2.3 mph - N/A   Clear
5:00 AM - - - N/A% 29.92 in - South 2.3 mph - N/A   Clear
6:00 AM 66.2 °F - 53.6 °F 64% 29.95 in - Calm Calm - N/A   Clear
7:00 AM 68.0 °F - 53.6 °F 60% 29.95 in - Calm Calm - N/A   Clear
8:00 AM 71 °F - 57 °F 51% 29.96 in 6 mi Calm Calm - -  
8:00 AM 71.6 °F - 57.2 °F 60% 29.98 in - Calm Calm - N/A   Clear
9:00 AM 75.2 °F - 59.0 °F 57% 29.98 in - Calm Calm - N/A   Clear
10:00 AM 78.8 °F - 55.4 °F 44% 29.98 in 5.0 mi Calm Calm - N/A   Unknown
11:00 AM 80.6 °F 80.8 °F 57.2 °F 45% 29.95 in - NNE 2.3 mph - N/A   Clear
12:00 PM 84.2 °F 83.0 °F 55.4 °F 37% 29.92 in - NNE 2.3 mph - N/A   Clear
1:00 PM 84.2 °F 83.0 °F 55.4 °F 37% 29.89 in - NNW 2.3 mph - N/A   Clear
2:00 PM 85 °F - 55 °F 26% 29.87 in 6 mi NNW 3.5 mph - -  
2:00 PM 84.2 °F 83.0 °F 55.4 °F 37% 29.86 in - North 3.5 mph - N/A   Clear
3:00 PM 86.0 °F 84.9 °F 57.2 °F 37% 29.86 in - North 4.6 mph - N/A   Clear
4:00 PM 84.2 °F 83.0 °F 55.4 °F 37% 29.86 in - NNW 3.5 mph - N/A   Clear
5:00 PM 82.4 °F 81.4 °F 53.6 °F 37% 29.86 in - Calm Calm - N/A   Clear
6:00 PM 78.8 °F - 51.8 °F 39% 29.89 in - Calm Calm - N/A   Clear
7:00 PM 75.2 °F - 53.6 °F 47% 29.89 in - WNW 3.5 mph - N/A   Clear
8:00 PM 75 °F - 51 °F 32% 29.90 in 6 mi NW 4.6 mph - -  
8:00 PM 75.2 °F - 51.8 °F 44% 29.92 in - NW 4.6 mph - N/A   Clear
9:00 PM 73.4 °F - 51.8 °F 47% 29.92 in - Calm Calm - N/A   Clear
10:00 PM 73.4 °F - 41.0 °F 31% 29.92 in - North 3.5 mph - N/A   Clear
11:00 PM 71.6 °F - 44.6 °F 38% 29.92 in - Calm Calm - N/A   Clear